Weather in Amami O Shima

Japan     28°16′59″N   129°22′00″E
temp.,
°C
wind,
m/s
gust,
m/s
humid.,
%
clouds,
%
prec.,
mm/h
press.,
hPa
HPBL,
m
20 may, fri
fri2000:00+21ese4889100 0.1 1015466
03:00+21ese5889100 0.2 1014418
06:00+21ese5988100 0.1 1013557
09:00+21se71090100 1.9 1013734
12:00+21se81394100 9.1 1011897
15:00+21se81494100 19.1 1008832
18:00+22s101596100 5.4 1007903
21:00+22s91492100 9.8 1007843
21 may, sat
sat2100:00+22ssw101593100 0.2 1006826
03:00+23ssw91593100 0.4 1004757
06:00+23sw101494100 0.7 1004770
09:00+22wsw71093100 0.8 1004577
12:00+22nne5595100 0.2 1004301
15:00+21ne91290100 0.8 1005742
18:00+21ne10138799 0.3 1004716
21:00+21ne9138518 0.3 1006763
22 may, sun
sun2200:00+21ne811847 0.1 1006761
03:00+21ne798415 0.1 1006738
06:00+21ne7983100 0.2 1007762
09:00+21nne898122 0.5 1009801
12:00+22ne677333 0.1 1009806
15:00+22nne66735 0.1 1009625
18:00+22ne5674100 0.0 1009623
21:00+20ene347691 0.0 1011303
23 may, mon
mon2300:00+19ne2378100 0.0 1010164
03:00+20ne3377100 0.0 1010222
06:00+20ene1176100 0.0 1012145
09:00+21ne3472100 0.0 1013304
12:00+22e2364100 0.0 1013590
15:00+23wnw1261100 0.0 1013455
18:00+22wnw1268100 0.0 1014507
21:00+21nnw2270100 0.0 1015432
24 may, tue
tue2400:00+21ne2272100 0.0 1015172
03:00+20e227093 0.0 101487
06:00+19ene226586 0.0 101699
09:00+22e2464100 0.0 1016374
12:00+24ese1354100 0.0 1016440
15:00+24se3451100 0.0 1014761
18:00+22ese4670100 0.0 1014560
21:00+21ese3682100 0.0 1015292